Location: Augsburg
(48.3836°N, 10.8929°E)
Time: 16:50:47
(UTC+02:00)

ISS - Pass Details

Date: 19 May 2021
Orbit: 417 x 422 km, 51.6° (Epoch: 12 June)

Event Time Altitude Azimuth Distance (km) Brightness Sun altitude
Rises 02:06:26 0° 292° (WNW) 2,372 0.2 -20.8°
Reaches altitude 10° 02:08:33 10° 289° (WNW) 1,506 -0.9 -20.7°
Enters shadow 02:09:21 16° 287° (WNW) 1,183 -1.5 -20.7°
